Volver al catálogo

FENGYUN 1C DEB

ActivoSSO
NORAD 32161·DEBRIS·🇨🇳 China

Lanzado May 10, 1999 desde Taiyuan Satellite Launch Center

Loading…

Próximos Pases (próximas 24 horas)

TLE

ActualizadoSource: Space-Track

Época: Sep 14, 2026, 13:14 UTC

1 32161U 99025CTF 26257.55174447  .00000262  00000-0  18484-3 0  9995
2 32161  98.8409 358.7001 0134563 231.3480 127.5582 14.02104310672944

Sigue FENGYUN 1C DEB en tiempo real con AllMySat

Download on the App Store